FW1898 Weather Reports


Display with metric or nautical units.
time (UTC)temp
F
wind
direction
speed
MPH
gust
MPH
rain 1hr
in
rain 24hr
in
rain mn
in
humidity
%
barometer
mb
20260502151825 41 342 4.0 6.0 0.00 0.15 0.00 100 1123.2
20260502130243 37 328 3.0 7.0 0.00 0.25 0.00 100 1121.8
20260502123243 37 319 3.0 6.0 0.00 0.26 0.00 100 1121.5
20260502120424 35 288 4.0 6.0 0.00 0.26 0.00 100 1121.4
20260502115443 35 290 3.0 5.0 0.00 0.26 0.00 100 1121.4
20260502114443 35 289 4.0 7.0 0.00 0.26 0.00 100 1121.3
20260502113541 35 291 4.0 7.0 0.00 0.26 0.00 100 1121.3
20260502112445 34 273 3.0 4.0 0.00 0.27 0.00 100 1121.1
20260502111542 33 264 2.0 6.0 0.00 0.27 0.00 100 1121.1
20260502110641 33 273 2.0 3.0 0.00 0.27 0.00 100 1120.7
20260502104641 33 292 2.0 3.0 0.00 0.27 0.00 100 1120.8
20260502101642 34 253 2.0 3.0 0.00 0.28 0.00 100 1120.7
20260502100725 35 276 3.0 4.0 0.00 0.28 0.00 100 1120.7
20260502090742 36 271 4.0 6.0 0.00 0.28 0.00 100 1120.5
20260502071244 38 247 2.0 3.0 0.00 0.28 0.00 100 1120.4
20260502070242 38 258 2.0 3.0 0.00 0.28 0.00 100 1120.3
20260502065342 38 276 3.0 4.0 0.00 0.28 0.00 100 1120.5
20260502064342 38 225 2.0 3.0 0.00 0.28 0.00 100 1120.8
20260502063342 39 247 2.0 3.0 0.00 0.28 0.00 100 1120.7
20260502062343 39 232 1.0 5.0 0.00 0.28 0.00 100 1120.7
20260502061341 38 192 0.0 3.0 0.00 0.28 0.00 100 1120.7
20260502060344 39 216 2.0 4.0 0.00 0.28 0.00 100 1120.9
20260502055342 39 204 3.0 4.0 0.00 0.28 0.00 100 1121.0
20260502054342 39 212 2.0 2.0 0.00 0.28 0.00 100 1121.1
20260502053342 38 212 0.0 2.0 0.00 0.28 0.00 100 1121.2
20260502052342 38 225 0.0 0.0 0.00 0.28 0.00 100 1121.1
20260502051441 38 225 0.0 0.0 0.00 0.28 0.00 100 1121.2
20260502050541 38 225 0.0 0.0 0.00 0.28 0.00 100 1121.2
20260502044543 38 225 0.0 0.0 0.00 0.28 0.00 100 1121.2
20260502042726 39 225 2.0 3.0 0.00 0.28 0.00 100 1121.3
20260502041742 39 202 2.0 3.0 0.00 0.28 0.00 100 1121.5
20260502040824 39 199 3.0 6.0 0.00 0.28 0.00 100 1121.4
20260502035851 39 203 3.0 4.0 0.00 0.28 0.28 100 1121.5
20260502034851 40 242 3.0 5.0 0.00 0.28 0.28 100 1121.7
20260502033852 40 220 3.0 5.0 0.00 0.28 0.28 100 1121.5
20260502031850 40 225 1.0 2.0 0.00 0.28 0.28 100 1121.4
20260502030935 40 225 0.0 2.0 0.00 0.28 0.28 100 1121.2
20260502025952 40 225 0.0 1.0 0.00 0.28 0.28 100 1121.1
20260502024952 40 225 0.0 0.0 0.00 0.28 0.28 100 1121.1
20260502023951 40 225 0.0 1.0 0.00 0.28 0.28 100 1121.1
20260502023036 40 225 1.0 2.0 0.00 0.28 0.28 100 1121.2
20260502022052 40 202 1.0 3.0 0.00 0.28 0.28 100 1121.1
20260502021053 41 225 3.0 4.0 0.00 0.28 0.28 100 1121.1
20260502020051 41 225 3.0 4.0 0.00 0.28 0.28 100 1120.9
20260502015052 41 240 3.0 4.0 0.00 0.28 0.28 100 1121.1
20260502014151 41 247 1.0 2.0 0.00 0.28 0.28 100 1121.1
20260502013136 41 247 1.0 2.0 0.00 0.28 0.28 100 1120.9
20260502011250 41 225 1.0 1.0 0.00 0.28 0.28 100 1120.9
20260502005351 41 225 0.0 1.0 0.00 0.28 0.28 100 1120.8
20260502003451 41 247 1.0 2.0 0.00 0.28 0.28 100 1120.6
20260502002452 42 251 1.0 2.0 0.00 0.28 0.28 100 1120.4
20260502001549 42 270 0.0 2.0 0.00 0.28 0.28 100 1120.2
20260502000648 42 292 2.0 2.0 0.00 0.28 0.28 100 1120.1
20260501234650 43 292 3.0 4.0 0.00 0.28 0.28 100 1119.9
20260501233749 43 292 2.0 4.0 0.00 0.28 0.28 100 1119.9
20260501232750 44 292 2.0 4.0 0.00 0.28 0.28 100 1119.9
20260501231849 45 296 3.0 5.0 0.00 0.28 0.28 100 1120.0
20260501230850 44 312 3.0 6.0 0.00 0.28 0.28 100 1119.9
20260501224949 44 292 3.0 4.0 0.00 0.28 0.28 100 1120.1
20260501224034 44 309 1.0 4.0 0.00 0.28 0.28 100 1120.3
20260501223051 45 296 5.0 9.0 0.00 0.28 0.28 100 1120.1
20260501222052 45 323 2.0 2.0 0.00 0.28 0.28 100 1120.1
20260501221050 44 305 4.0 8.0 0.00 0.28 0.28 100 1119.8
20260501220051 44 299 5.0 7.0 0.00 0.28 0.28 100 1119.5
20260501215150 44 300 4.0 8.0 0.00 0.28 0.28 100 1119.6
20260501214150 44 316 2.0 4.0 0.00 0.28 0.28 100 1119.6
20260501213250 45 296 5.0 8.0 0.00 0.28 0.28 100 1119.6
20260501212333 46 300 4.0 7.0 0.00 0.28 0.28 100 1119.8
20260501211349 46 314 2.0 4.0 0.00 0.28 0.28 100 1119.5
20260501210351 45 322 3.0 5.0 0.00 0.28 0.28 100 1119.2
20260501205450 45 339 5.0 8.0 0.00 0.28 0.28 100 1119.3
20260501204549 44 320 2.0 6.0 0.00 0.28 0.28 100 1119.1
20260501203549 43 338 3.0 6.0 0.00 0.28 0.28 100 1119.0
20260501202623 42 337 5.0 8.0 0.00 0.28 0.28 100 1118.9
20260501201552 41 340 3.0 7.0 0.01 0.28 0.28 100 1118.6
20260501200552 42 326 7.0 13.0 0.01 0.28 0.28 100 1118.4
20260501195633 42 305 2.0 4.0 0.01 0.28 0.28 100 1118.5
20260501193652 42 324 1.0 6.0 0.02 0.28 0.28 100 1118.3
20260501193551 42 296 3.0 8.0 0.02 0.28 0.28 100 1118.3
20260501192650 41 343 5.0 11.0 0.02 0.28 0.28 100 1118.1
20260501191750 41 308 5.0 7.0 0.02 0.27 0.27 100 1118.1
20260501190751 41 309 2.0 5.0 0.02 0.27 0.27 100 1118.1
20260501185751 41 314 4.0 7.0 0.03 0.27 0.27 100 1118.0
20260501184751 41 310 4.0 6.0 0.03 0.26 0.26 100 1117.9
20260501183749 41 323 5.0 8.0 0.05 0.26 0.26 100 1117.7
20260501182836 41 321 3.0 5.0 0.07 0.26 0.26 100 1117.5
20260501181850 41 341 5.0 11.0 0.07 0.26 0.25 100 1117.3
20260501180935 41 336 3.0 7.0 0.07 0.26 0.25 100 1117.3
20260501180033 41 348 7.0 11.0 0.06 0.25 0.24 100 1117.2
20260501175050 40 331 4.0 7.0 0.06 0.24 0.23 100 1117.2
20260501174148 40 312 3.0 6.0 0.06 0.23 0.21 100 1117.1
20260501173151 40 321 4.0 8.0 0.03 0.20 0.19 100 1117.0
20260501172249 41 323 6.0 9.0 0.03 0.19 0.18 100 1117.1
20260501171249 42 316 4.0 6.0 0.04 0.20 0.18 100 1116.8
20260501170250 42 322 3.0 6.0 0.05 0.20 0.18 100 1116.7
20260501165348 43 310 3.0 6.0 0.04 0.19 0.17 100 1116.7
20260501164350 43 315 1.0 3.0 0.03 0.20 0.16 100 1116.7
20260501163350 43 300 6.0 10.0 0.03 0.20 0.16 100 1116.7
20260501162448 43 273 2.0 4.0 0.02 0.19 0.15 100 1116.6
20260501161448 43 238 2.0 3.0 0.01 0.18 0.14 100 1116.7
20260501160451 43 214 4.0 6.0 0.01 0.17 0.13 100 1116.5